COSMOS 1275 DEB, 15766

Orbit data source: Space-Track

COSMOS 1275 DEB, 15766 is space debris in LEO originally from a launch on Thu, 04 Jun 1981 UTC launched from the Plesetsk Missile And Space Complex (PKMTR). Debris objects in space refer to the collection of defunct objects orbiting the Earth. Examples of debris include non-operational satellites, rocket bodies, and fragments generated from explosions, collisions, or faulty payload assembly.

Loading next visibility...
Identifier
15766, 1981-053KB
Orbit
LEO
Country
Flag of CISCIS
Related business
Manufacturer
Unknown
Mission
Spacecraft
Bus & Motor
Unknown
Mass
Unknown
Launch date (UTC)
1981-06-04 (45 years ago)
Launch vehicle
Unknown
Launch site
Plesetsk Missile And Space Complex (PKMTR)
Object type
Payload
Rocket body
Debris
Shape & HBR
Unknown shape, 0.1 m
Radar Cross Section
Small (<0.1 m²)

Expand to show TLE details & history
Last TLE update: 2 days ago

TLE from 2 days ago
0 COSMOS 1275 DEB
1 15766U 81053KB  25340.78749069  .00012415  00000-0  35428-2 0  9993
2 15766  82.9349  94.4802 0006614 113.3780 246.8112 14.45093783 86337
Epoch: 2025-12-06T18:53Z
TLE epoch observation values (Epoch: 2025-12-06T18:53:59.195Z)
Latitude
0.00003°
Longitude
95.17334°
Altitude
746.572 km
Speed
7.48 km/s
True Right ascension
06h 17m 55s
True Declination
0° 00' 00"
Sunlit
Object was in full shadow at epoch
Visualization orbit readout
Latitude
Unknown
Longitude
Unknown
Altitude
Unknown
Speed
Unknown
Apparent Right ascension
Unknown
Apparent Declination
Unknown
Sunlit
N/A
Visualization observer readout
Local Sidereal Time
09:12:09
Azimuth
Unknown
Elevation
Unknown
Doppler factor
Unknown
Orbital elements
Apogee altitude
743.478 km
Perigee altitude
734.064 km
Semi-major axis
7,116.908 km
Eccentricity
0.00066
Inclination
82.9349°
RAAN
94.4802°
Arg. of periapsis
113.378°
True anomaly
246.74155°
Mean anomaly
246.8112°
Eccentric anomaly
246.77638°
Mean motion
3.61498 °/min
Orbital period
99.59 mins
BSTAR
0.0035428
Loading maneuver chart data...
Computing Atmospheric mass density...
Loading historical data...
Loading historical data...
Loading historical data...
Loading historical data...
Loading historical data...
Loading historical data...
Loading historical data...

Documentation

Showing up to 5 results
|